#timestamp,LO_Frequency,Hit,StdDev 
1620997215.4,286046999.7,N
1620997235.2,286047002.0,N
1620997255.1,286047002.1,N
1620997256.0,286047002.1,N
1620997275.8,286047002.1,N
1620997295.7,286047004.2,Y
1620997315.5,286047002.6,P
1620997335.3,286047002.8,P
1620997355.2,286047002.3,P
1620997375.0,286047002.6,Y
1620997375.9,286047002.6,P
1620997395.8,286046998.6,P
1620997415.6,286046998.2,N
1620997435.4,286046998.2,N
1620997455.3,286046998.6,N
1620997475.1,286046998.3,N
1620997495.8,286046998.5,N
1620997515.7,286047000.8,N
1620997535.5,286047001.1,N
1620997555.4,286046998.4,N
1620997575.2,286047001.2,N
1620997595.0,286047001.2,N
1620997595.9,286047001.2,N
1620997615.8,286047000.7,N
1620997635.6,286046998.3,N
1620997655.4,286047001.2,N
1620997675.3,286046998.1,N
1620997695.1,286046998.6,N
1620997715.9,286047001.0,N
1620997735.7,286047000.1,N
1620997755.5,286047000.2,N
1620997775.4,286047000.1,N
1620997795.2,286047000.6,N
1620997815.0,286047000.3,N
1620997815.9,286047000.3,N
1620997835.8,286047000.0,N
1620997855.6,286047002.7,N
1620997875.5,286047000.0,N
1620997895.3,286047000.2,N
1620997915.1,286047000.6,N
1620997935.9,286047001.1,N
1620997955.7,286046999.8,N
1620997975.6,286046999.9,N
1620997995.4,286047000.6,N
1620998015.2,286047000.5,N
1620998035.1,286047000.5,N
1620998036.0,286047000.5,N
1620998055.8,286047000.9,N
1620998075.6,286047000.5,N
1620998095.5,286047000.4,N
1620998115.3,286047000.2,N
1620998135.2,286047000.4,N
1620998155.9,286046999.9,N
1620998175.7,286046999.9,N
1620998195.6,286047002.8,Y
1620998215.4,286047000.5,P
1620998235.3,286047000.4,N
1620998255.1,286047000.4,P
1620998256.0,286047000.4,Y
1620998275.8,286047000.3,P
1620998295.7,286047000.2,P
1620998315.5,286047000.2,N
1620998335.4,286047000.9,Y
1620998355.2,286047000.2,P
1620998375.0,286047001.0,P
1620998375.9,286047001.0,N
1620998395.8,286047000.7,N
1620998415.6,286047000.8,N
1620998435.4,286047000.4,N
1620998455.3,286047000.5,N
1620998475.1,286047000.4,N
1620998495.9,286047000.5,N
1620998515.7,286047001.2,Y
1620998535.5,286046998.2,P
1620998555.4,286046998.5,N
1620998575.2,286046998.5,N
1620998595.1,286046998.5,N
1620998596.0,286046998.5,N
1620998615.8,286047000.5,N
1620998635.6,286047001.0,N
1620998655.5,286047000.0,N
1620998675.3,286047000.1,N
1620998695.2,286047002.1,N
1620998715.9,286047002.0,N
1620998735.7,286047004.3,Y
1620998755.6,286047004.0,P
1620998775.4,286047001.5,N
1620998795.2,286047004.0,N
1620998815.1,286047003.9,N
1620998816.0,286047003.9,N
1620998835.8,286047004.2,N
1620998855.7,286047003.9,N
1620998875.5,286047001.7,N
1620998895.3,286047003.8,N
1620998915.2,286047004.1,N
1620998935.0,286047003.9,N
1620998935.9,286047003.9,N
1620998955.8,286047001.5,N
1620998975.6,286047004.4,Y
1620998995.4,286047000.6,P
1620999015.3,286047002.7,N
1620999035.1,286047002.1,N
1620999055.9,286047002.1,N
1620999075.7,286046999.7,N
1620999095.5,286047002.2,N
1620999115.4,286047002.8,N
1620999135.2,286046999.7,N
1620999155.0,286046999.7,N
1620999155.9,286046999.7,N
1620999175.8,286047002.7,N
1620999195.6,286046999.7,N
1620999215.5,286047002.4,N
1620999235.3,286047002.2,N
1620999255.1,286047002.6,N
1620999275.9,286047002.0,N
1620999295.7,286047001.7,N
1620999315.5,286047001.4,N
1620999335.4,286047001.3,N
1620999355.2,286047004.1,Y
1620999375.1,286047002.8,P
1620999376.0,286047002.8,P
1620999395.8,286047002.3,P
1620999415.6,286047001.9,Y
1620999435.5,286047000.5,P
1620999455.3,286047000.8,N
1620999475.2,286047000.2,N
1620999495.9,286047000.4,N
1620999515.7,286047000.2,N
1620999535.6,286047000.1,N
1620999555.4,286047002.7,Y
1620999575.3,286047000.3,P
1620999595.1,286046999.7,N
1620999596.0,286046999.7,N
1620999615.8,286047000.0,N
1620999635.7,286047002.5,Y
1620999655.5,286047002.2,P
1620999675.3,286047002.1,N
1620999695.2,286047002.6,N
1620999715.0,286047002.2,N
1620999715.9,286047002.2,N
1620999735.8,286047002.7,Y
1620999755.6,286046998.6,P
1620999775.4,286046998.4,N
1620999795.3,286046998.6,N
1620999815.1,286046998.1,N
1620999835.9,286046998.3,N
1620999855.7,286047000.8,N
1620999875.5,286046998.7,N
1620999895.4,286046998.8,N
1620999915.2,286047000.7,N
1620999935.0,286047001.2,N
1620999935.9,286047001.2,N
1620999955.8,286047000.3,N
1620999975.6,286047000.7,N
1620999995.5,286047000.0,N
1621000015.3,286047000.7,N
1621000035.1,286046998.2,N
1621000055.9,286046998.2,N
1621000075.7,286047001.0,N
1621000095.5,286046998.3,N
1621000115.4,286046998.2,N
1621000135.2,286046998.9,N
1621000155.1,286046998.9,N
1621000156.0,286046998.9,N
1621000175.8,286046998.9,N
1621000195.6,286046999.0,N
1621000215.5,286046999.4,N
1621000235.3,286046998.6,N
1621000255.1,286046998.9,N
1621000275.9,286046999.3,N
1621000295.7,286046999.0,N
1621000315.6,286046998.5,N
1621000335.4,286046998.7,N
1621000355.2,286046998.8,N
1621000375.1,286046999.1,N
1621000376.0,286046999.1,N
1621000395.8,286046999.1,N
1621000415.7,286046997.0,Y
1621000435.5,286046999.1,P
1621000455.3,286046998.9,P
1621000475.2,286046998.9,P
1621000495.0,286046998.5,Y
1621000495.9,286046998.5,P
1621000515.8,286046998.1,P
1621000535.6,286046998.6,P
1621000555.4,286047001.1,Y
1621000575.3,286047000.3,P
1621000595.1,286047000.0,N
1621000615.8,286046999.7,N
1621000635.7,286047002.7,Y
1621000655.5,286047002.4,P
1621000675.4,286047002.7,N
1621000695.2,286047002.7,N
1621000715.0,286047002.7,N
1621000715.9,286047002.7,N
1621000735.8,286046999.8,N
1621000755.6,286047000.9,N
1621000775.4,286047000.6,N
1621000795.3,286047002.7,N
